Hourly Data Report for July 01, 2016

OTTAWA INTL A
ONTARIO

45°19'00.000" N
75°40'00.000" W
114.90 m
6106001
71628
YOW

Download Data

Hourly Data (July 2016)
Hourly Data Report for July 1, 2016
TIME
LST
Temp Definition
°C
Dew Point Definition
°C
Rel Hum Definition
%
Precip. Amount Definition
mm

Wind Dir Definition
10's deg

Wind Spd Definition
km/h
Visibility Definition
km
Stn Press Definition
kPa
Hmdx Definition


Wind Chill Definition


Weather Definition


00:00 15.8 9.1 64   20 9 24.1 100.08     LegendNANA
01:00 14.7 8.9 68   17 7 24.1 100.03     Clear
02:00 13.8 9.3 74   19 7 24.1 100.01     LegendNANA
03:00 12.9 9.6 80   19 10 24.1 100.02     LegendNANA
04:00 12.1 9.5 84   17 9 24.1 100.04     Mostly Cloudy
05:00 12.9 10.1 83   17 5 24.1 100.01     LegendNANA
06:00 14.3 11.1 81   36 2 24.1 100.01     LegendNANA
07:00 16.2 12.2 77   12 5 24.1 99.99     Mostly Cloudy
08:00 19.6 12.9 65   14 6 24.1 99.94     LegendNANA
09:00 23.4 13.4 53   12 9 24.1 99.86 26   LegendNANA
10:00 26.1 12.4 42   12 16 24.1 99.80 29   Mostly Cloudy
11:00 27.0 13.2 42   15 11 24.1 99.74 30   LegendNANA
12:00 27.7 11.9 37   16 18 24.1 99.64 30   LegendNANA
13:00 24.9 12.0 44   16 17 24.1 99.58 27   Mostly Cloudy
14:00 24.6 13.0 48   17 9 24.1 99.50 27   LegendNANA
15:00 17.8 15.8 88   28 11 12.9 99.55     Thunderstorms,Hail
16:00 20.5 17.2 81   16 10 24.1 99.50 26   Mostly Cloudy
17:00 20.4 16.9 80   15 12 24.1 99.46 26   LegendNANA
18:00 19.6 17.6 88   13 9 24.1 99.38     LegendNANA
19:00 14.4 13.3 93   21 9 24.1 99.41     Thunderstorms,Rain Showers
20:00 14.7 14.1 96   22 8 24.1 99.35     Rain
21:00 15.6 14.3 92   21 12 24.1 99.35     LegendNANA
22:00 15.2 14.1 93   24 14 24.1 99.36     Mostly Cloudy
23:00 14.9 14.1 95   24 16 24.1 99.39     Rain

Notes on Data Quality.

Legend

  • E = Estimated
  • M = Missing
  • NA = Not Available*
  • [empty] = Indicates an unobserved value
Date modified: